Preview of NWS' New Version of Forecast
This preview is not operational and should not be used for support decisions.

Regional Weather Roundup (RWR)

Issued by Huntsville, AL (HUN)

                            
000
ASUS44 KHUN 200810
RWRHUN
       
WEATHER ROUNDUP FOR THE TENNESSEE VALLEY
NATIONAL WEATHER SERVICE HUNTSVILLE AL
300 AM CDT MON MAY 20 2019

ALZ001>004-200900-
NORTHWEST ALABAMA
  
CITY           SKY/WX    TMP DP  RH WIND       PRES   REMARKS
SHOALS AIRPORT FAIR      66  64  93 CALM      30.00R                  
$$

ALZ005>007-016-200900-
NORTH CENTRAL ALABAMA
  
CITY           SKY/WX    TMP DP  RH WIND       PRES   REMARKS
CULLMAN AG STN   N/A     66 N/A N/A CALM        N/A                   
DECATUR AP     FAIR      68  66  93 SW3       30.00R                  
HUNTSVILLE AP  FAIR      69  67  93 CALM      29.99S                  
MERIDIANVILLE    N/A     66  65  96 S3        30.00R                  
VINEMONT AP    FAIR      65  64  97 CALM      30.03R                  
$$
 
ALZ008>010-200900-
NORTHEAST ALABAMA
  
CITY           SKY/WX    TMP DP  RH WIND       PRES   REMARKS
ALBERTVILLE    FAIR      64  61  88 CALM      30.02S                  
FORT PAYNE     MOCLDY    64  63  94 CALM      30.01R                  
SCOTTSBORO AP  FAIR      68  68 100 CALM      30.00S                  
$$

TNZ076-096-097-200900-
SOUTHEASTERN MIDDLE TENNESSEE
  
CITY           SKY/WX    TMP DP  RH WIND       PRES   REMARKS
FAYETTEVILLE   CLOUDY    68  68 100 SW7       30.00R                  
TULLAHOMA      PTCLDY    64  63  94 SW5       29.99S                  
WINCHESTER     CLEAR     63  61  94 CALM      30.00S                  
$$
 
...SURROUNDING SITES...
  
CITY           SKY/WX    TMP DP  RH WIND       PRES   REMARKS
ATLANTA        MOCLDY    71  63  75 CALM      30.02S                  
ANNISTON       CLOUDY    68  64  87 SW3       30.01F                  
BIRMINGHAM     FAIR      68  64  87 SE5       30.03F                  
CHATTANOOGA    FAIR      72  62  71 S5        29.99S                  
CORINTH        CLOUDY    68  68 100 CALM      29.99R                  
DALTON         MOCLDY    68  63  83 CALM      30.02S                  
GADSDEN        FAIR      67  67 100 CALM      30.01S                  
GOLDEN TRNGL   CLOUDY    69  68  96 SW7       30.00R                  
HALEYVILLE     CLOUDY    66  65  96 SW3       30.03S FOG              
JACKSON TN     FAIR      63  63 100 CALM      29.99S FOG              
MEMPHIS        FAIR      67  62  84 CALM      29.98S                  
NASHVILLE      MOCLDY    70  65  84 W3        29.97R                  
OXFORD MS      FAIR      64  64 100 CALM      30.00S                  
ROME           CLOUDY    69  64  84 S3        29.99F                  
SAVANNAH       CLOUDY    70  68  94 CALM      29.98S                  
SELMER         CLEAR     68  64  88 SW5       29.98S                  
TUPELO         FAIR      68  65  90 S5        29.98S                  
TUSCALOOSA     FAIR      68  64  87 CALM      30.00F                  
$$